Погода Усть-Ишим

Погода Усть-Ишим : погода сейчас, прогноз погоды и архив. Всё, что Вы хотите узнать о погоде Усть-Ишим!

Хотите узнать прогноз погоды Усть-Ишим? Тогда Вам сюда: Погода Усть-Ишим

Поиск расширенной информации на нашем сайте:

Полезная информация: Мебельные фасады из мдф профиля как оформить заказ мебельные фасады на заказ.

Другие новости

Новости СМИ2

Главная страница сайта

Новости сайта

03.07.2017

Напоминаем, что на нашем специализированном сайте Метеоцентр.Азия вы можете получить высокодетализированные автоматические прогнозы погоды по пунктам России, СНГ и мира в авиационном формате (включающие направление и скорость ветра, видимость, явления погоды, количество и форму облачности, нижнюю и верхнюю границу облачности).

Рекомендуем: Копии часов гесс элитные копии часов.

Погода Усть-Ишим - сегодня

Время (UTC), дата Ветер
(°,м/с) 
Видим.   Явления Облачность Т
(°С)
Тd
(°С)
f(%) Тe
(°С)
Pmin
(гПа)
dP
(гПа)
Po
(мм)
O2
(г/м3)
Тmin Tmax R s Состояние
почвы
21 20.10.17 230 (ЮЗ) 4{12}  10 км  слаб. снег  10/0 средняя 
[Ac As]
+1.4 +0.5 94 -1  997.4  0.7  743  298           
00 21.10.17 230 (ЮЗ) 4000 м  слаб. снег  10/0 средняя 
[Ac As]
+0.8 +0.3 96 -2  997.3  -0.1  743  298           
03 21.10.17 240 (ЮЗ) 6{11}  50000 м  {снег}  8/6 600 м кучево-дожд., средняя 
[Cb cap|Ac und]
+0.4 -2.1 83 -3  998  0.7  743  299  +0.3    0.7     
06 21.10.17 240 (ЮЗ) 7-11{13}  10 км  слаб. снег  10/10 300 м 
[Frnb]
+0.9 -2.6 77 -3  999.4  1.3  744  299           
09 21.10.17 250 (З) 7-11{12}  50000 м  в посл. час ливневой снег  10/10 300 м кучево-дожд. 
[Cb cap]
+0.8 -2.8 77 -3  1001.2  1.8  746  300           
12 21.10.17 250 (З) 5{11}  50000 м  {ливн. осадки}  10/10 600 м 
[Sc]
+0.1 -2.9 80 -3  1002.9  1.7  747  301           
15 21.10.17 250 (З) 5{10}  10 км  слаб. ливневой снег  10/10 600 м кучево-дожд. 
[Cb cap]
-0 -3.5 77 -3  1003.7  0.7  748  302    +1  0.4     
18 21.10.17 240 (ЮЗ) 4000 м  слаб. ливневой снег  10/10 600 м кучево-дожд. 
[Cb cap]
-1.3 -2.2 94 -3  1004.4  0.7  748  303           
21 21.10.17 260 (З) 4000 м  слаб. ливневой снег  10/10 600 м кучево-дожд. 
[Cb cap]
-1.8 -2.1 98 -4  1005.1  0.7  749  304           
00 22.10.17 250 (З) 20000 м  {ливн. осадки}  10/10 600 м кучево-дожд. 
[Cb cap]
-2.4 -3.9 89 -4  1006.2  749  305           
03 22.10.17 250 (З) 50000 м    9/9 600 м 
[Sc]
-2.3 -4.9 82 -3  1007.7  1.5  751  306  -2.6    0.6  равномерный
сухой снег
100% 
06 22.10.17 250 (З) 50000 м  {ливн. осадки}  10/10 600 м кучево-дожд. 
[Cb cap]
-0.6 -4.3 76 -4  1008.9  1.3  752  304           
09 22.10.17 270 (З) 5{10}  50000 м  {ливн. осадки}  8/8 600 м кучево-дожд. 
[Cb cap]
+1.2 -7.1 54 -2  1010.2  1.3  752  303           
12 22.10.17 250 (З) 4{11}  50000 м  {ливн. осадки}  10/4 600 м кучево-дожд., верхняя 
[Cb cap|Ci fib]
-0.9 -6.8 64 -3  1012.1  1.8  754  305           
15 22.10.17 220 (ЮЗ) 20000 м    9/9 600 м 
[Sc]
-2.9 -6.8 74 -5  1013.6  1.5  755  308    +1.4  0.0     
18 22.10.17 220 (ЮЗ) 20000 м    ясно 
-5 -7.6 82 -6  1014.9  1.2  756  311           
21 22.10.17 230 (ЮЗ) 20000 м    ясно 
-5.7 -7.2 89 -5  1016  1.1  757  312           
00 23.10.17 220 (ЮЗ) 20000 м    ясно 
-6.8 -8.3 89 -8  1016.8  0.7  757  314           
03 23.10.17 190 (Ю) 50000 м    3/0 верхняя 
[Ci fib]
-6 -7.6 88 -6  1017.8  758  313  -7         
06 23.10.17 210 (ЮЗ) 50000 м    3/0 верхняя 
[Ci sp]
-0.5 -5.2 70 -2  1018.2  0.5  758  307           
09 23.10.17 220 (ЮЗ) 50000 м    8/6 600 м верхняя 
[Sc diur, vesp|Ci fib]
+1.5 -6.5 55 -1  1017.9  -0.2  758  305           
12 23.10.17 160 (Ю) 50000 м    10/9 600 м верхняя 
[Sc|Cs]
-0 -5.7 65 +1  1017.8  -0.2  758  306           
15 23.10.17 110 (В) 20000 м    3/0 средняя 
[Ac lent]
-1.8 -6.3 71 -1  1017.5  -0.3  758  308    +2.1       
18 23.10.17 080 (В) 20000 м    ясно 
-2.3 -6.3 74 -2  1016.5  -1  757  308           
21 23.10.17 070 (В) 20000 м    4/0 верхняя 
[Ci fib]
-2.7 -6.6 74 -4  1013.7  -2.8  755  308           
Время (UTC), дата Ветер
(°,м/с) 
Видим.   Явления Облачность Т
(°С)
Тd
(°С)
f(%) Тe
(°С)
Pmin
(гПа)
dP
(гПа)
Po
(мм)
O2
(г/м3)
Тmin Tmax R s Состояние
почвы

Для получения пояснительной информации подведите курсор к названию столбца.

ПОГОДА Усть-Ишим - архив

Всё, что Вы хотите узнать о погоде Усть-Ишим - удобно и подробно!

Выберите нужную дату (начиная с 1 января 2015* года) и нажмите кнопку "Найти".
Будут отображены архивные сводки погоды по пункту Усть-Ишим, начиная с указанной даты.


Отображать данные в формате CSV (для использования в таблицах Excel)


Внимание! Наш архив погоды предназначен исключительно для личного некоммерческого использования в познавательных целях. Если Вам необходимы официальные справки о состоянии погоды (для производственных, юридических, коммерческих и т.п. целей), обращайтесь в органы Росгидромета.

*Примечание: данная дата относится к архиву по метеостанциям СССР (Россия, СНГ, Балтия).
Архив по метеостанциям Зарубежной Европы и Азии (кроме Китая) хранится 10 дней, по другим регионам земного шара (Китай, Африка, Америка, Австралия, Океания) - 1 день.

Усть-Ишим - район местоположения метеостанции


Название, широта, долгота, высота метеостанции:
Усть-Ишим 57.7°ш. 71.2°д. 56 м над ур. моря [Российская Федерация]

Дополнительная информация

В oтличие oт бoльшинства пoгoдных сайтoв мы публикуем пoдрoбную метеoинфoрмацию в детальнoм прoфессиoнальнoм фoрмате.

Характеристики температуры и влажнoсти вoздуха измеряются на высoте 2 м в тени вдали oт зданий и деревьев.
Скoрoсть ветра измеряется на высoте 10 м (на урoвне рoста челoвека скoрoсть ветра ниже в 1.5-2 раза). Если метеoстанция нахoдится в гoрoде или в лесу, тo скoрoсть ветра занижена на 2-4 м/с пo сравнению с oткрытым местoм. Скoрoсть ветра над акватoриями крупных рек и oзёр, а также на вершинах хoлмoв на 2-5 м/с выше, чем в oбычных услoвиях.
Атмoсфернoе давление в разных тoчках местнoсти мoжет значительнo oтличаться oт давления на метеoстанции, в зависимoсти oт услoвий рельефа (при пoдъёме на 10 м давление пoнижается примернo на 1 мм рт.ст.).